sat.trackr.live / text

‹ back to catalog

STARLINK-31916

NORAD 59795 · 2024-093P

PAYLOAD ACTIVE UNKNOWN

§ Identity

Operator
Country
US
Launch date
2024-05-18
Launch site
AFETR
Launch vehicle
Mass (kg)
RCS (m²)

Purposes: comms

External: N2YO · Heavens-Above · Gunter

§ Orbital elements

Epoch: 2026-05-24T11:04:16.154976Z

Period
94.27 min
Inclination
43.0019°
Eccentricity
0.0001298
Mean motion
15.27586942 rev/d
Perigee alt
482.1 km
Apogee alt
483.9 km
Semi-major
6,861.2 km
B*
5.5720e-5
RAAN
140.9785°
Arg perigee
255.5112°
Mean anomaly
104.5596°
Rev number
11,428

§ Raw data

STARLINK-319161 59795U 24093P   26144.46129809  .00001272  00000+0  55720-4 0  99932 59795  43.0019 140.9785 0001298 255.5112 104.5596 15.27586942114284

JSON: /api/v1/satellites/59795 · /tle

For live sub-satellite position, see the globe view (requires WebGL).

§ Visibility from observer

Set your observer location to see the next 7 days of passes ≥ 10°. The values pass through the URL so the page stays shareable.

No JS? Fill the form by hand. The geolocation button needs JavaScript.